Dyersburg, TN

10:38 AM CST on December 06, 2019 (GMT -0600)
Dyersburg Municipal

Weather History for KDYR - October, 2019

Change the Weather History Date:

Monday, October 14, 2019

  Actual Average Record
Temperature  
Mean Temperature 57 °F -  
Max Temperature 73 °F 69 °F 88 °F (2017)
Min Temperature 42 °F 48 °F 41 °F (1997)
Degree Days  
Heating Degree Days 8    
Growing Degree Days 7 (Base 50)    
Moisture  
Dew Point 46 °F    
Average Humidity 84    
Maximum Humidity 100    
Minimum Humidity 38    
Precipitation  
Precipitation 0.00 in - - ()
Sea Level Pressure  
Sea Level Pressure 30.11 in    
Wind  
Wind Speed 1 mph ()    
Max Wind Speed 6 mph    
Max Gust Speed -    
Visibility 7.0 miles    
Events      
Averages and records for this station are not official NWS values.
T = Trace of Precipitation, MM = Missing Value Source: Averaged Metar Reports

Daily Weather History Graph

Daily Weather History Graph

Search for Another Location

Airport or City:

Astronomy

Oct. 14, 2019 Rise Set
Actual Time 7:03 AM CDT 6:23 PM CDT
Civil Twilight 6:37 AM CDT 6:49 PM CDT
Nautical Twilight 6:07 AM CDT 7:18 PM CDT
Astronomical Twilight 5:38 AM CDT 7:48 PM CDT
Moon 7:13 PM CDT (10/14) 7:35 AM CDT (10/14)
Length of Visible Light 12h 11m
Length of Day
11h 20m
Full, 99% of the Moon is Illuminated
Oct 14
Full
Oct 21
Last Quarter
Oct 27
New
Nov 4
First Quarter
Nov 12
Full

Hourly Weather History & Observations

Time (CDT) Temp. Windchill Dew Point Humidity Pressure Visibility Wind Dir Wind Speed Gust Speed Precip Events Conditions
12:56 AM 45.0 °F - 44.1 °F 97% 30.10 in 10.0 mi Calm Calm - N/A   Clear
1:56 AM 48.0 °F - 46.0 °F 93% 30.10 in 10.0 mi SW 4.6 mph - N/A   Clear
2:56 AM 50.0 °F - 46.9 °F 89% 30.10 in 10.0 mi WSW 4.6 mph - N/A   Clear
3:56 AM 46.0 °F - 45.0 °F 96% 30.10 in 10.0 mi Calm Calm - N/A   Clear
4:56 AM 45.0 °F - 44.1 °F 97% 30.12 in 10.0 mi Calm Calm - N/A   Clear
5:00 AM 44.6 °F - 44.6 °F 100% 30.10 in 1.8 mi Calm Calm - N/A   Clear
5:05 AM 44.6 °F - 44.6 °F 100% 30.10 in 0.8 mi Calm Calm - N/A   Clear
5:21 AM 42.8 °F - 42.8 °F 100% 30.10 in 1.2 mi Calm Calm - N/A   Clear
5:43 AM 42.8 °F - 42.8 °F 100% 30.11 in 1.5 mi Calm Calm - N/A   Clear
5:56 AM 44.1 °F 42.5 °F 44.1 °F 100% 30.14 in 1.8 mi South 3.5 mph - N/A   Clear
6:13 AM 44.6 °F 42.2 °F 44.6 °F 100% 30.12 in 3.0 mi South 4.6 mph - N/A   Clear
6:53 AM 42.8 °F - 42.8 °F 100% 30.12 in 1.5 mi Calm Calm - N/A   Clear
6:56 AM 43.0 °F - 43.0 °F 100% 30.14 in 1.2 mi Calm Calm - N/A   Clear
7:01 AM 42.8 °F - 42.8 °F 100% 30.12 in 0.8 mi Calm Calm - N/A   Clear
7:08 AM 42.8 °F - 42.8 °F 100% 30.12 in 1.0 mi Calm Calm - N/A   Clear
7:11 AM 42.8 °F - 42.8 °F 100% 30.12 in 2.0 mi Calm Calm - N/A   Clear
7:19 AM 42.8 °F - 42.8 °F 100% 30.12 in 4.0 mi Calm Calm - N/A   Clear
7:35 AM 42.8 °F - 42.8 °F 100% 30.12 in 2.0 mi Calm Calm - N/A   Clear
7:44 AM 42.8 °F - 42.8 °F 100% 30.12 in 10.0 mi Calm Calm - N/A   Clear
7:56 AM 45.0 °F - 45.0 °F 100% 30.14 in 10.0 mi Calm Calm - N/A   Clear
8:56 AM 53.1 °F - 50.0 °F 89% 30.17 in 10.0 mi Calm Calm - N/A   Clear
9:56 AM 57.9 °F - 50.0 °F 75% 30.16 in 10.0 mi Calm Calm - N/A   Clear
10:56 AM 63.0 °F - 51.1 °F 65% 30.17 in 10.0 mi Calm Calm - N/A   Clear
11:56 AM 66.9 °F - 48.9 °F 52% 30.16 in 10.0 mi Calm Calm - N/A   Clear
12:56 PM 70.0 °F - 46.9 °F 44% 30.13 in 10.0 mi ESE 5.8 mph - N/A   Clear
1:56 PM 72.0 °F - 45.0 °F 38% 30.10 in 10.0 mi Variable 3.5 mph - N/A   Clear
2:56 PM 70.0 °F - 46.0 °F 42% 30.09 in 10.0 mi South 5.8 mph - N/A   Clear
3:56 PM 69.1 °F - 46.0 °F 44% 30.09 in 10.0 mi SSE 4.6 mph - N/A   Clear
4:56 PM 68.0 °F - 48.0 °F 49% 30.08 in 10.0 mi East 3.5 mph - N/A   Clear
5:56 PM 64.0 °F - 51.1 °F 63% 30.09 in 10.0 mi Calm Calm - N/A   Clear
6:56 PM 60.1 °F - 51.1 °F 72% 30.09 in 10.0 mi Calm Calm - N/A   Clear
7:56 PM 57.0 °F - 52.0 °F 83% 30.09 in 10.0 mi SE 3.5 mph - N/A   Clear
8:56 PM 61.0 °F - 48.9 °F 64% 30.08 in 10.0 mi Variable 3.5 mph - N/A   Clear
9:56 PM 57.0 °F - 51.1 °F 81% 30.08 in 10.0 mi Calm Calm - N/A   Clear
10:56 PM 55.0 °F - 51.1 °F 86% 30.08 in 10.0 mi Calm Calm - N/A   Clear
11:56 PM 54.0 °F - 51.1 °F 90% 30.09 in 10.0 mi Calm Calm - N/A   Clear